| time (UTC) | temp F | wind direction | speed MPH | gust MPH | rain 1hr in | rain 24hr in | rain mn in | humidity % | barometer mb |
| 20260510201545 | 69 | 257 | 0.0 | 1.0 | 0.00 | 0.51 | 0.00 | 73 | 1017.7 |
| 20260510200043 | 69 | 257 | 0.0 | 1.0 | 0.00 | 0.62 | 0.00 | 73 | 1017.9 |
| 20260510194544 | 69 | 264 | 0.0 | 1.0 | 0.00 | 0.62 | 0.00 | 73 | 1018.1 |
| 20260510193048 | 70 | 240 | 0.0 | 1.0 | 0.00 | 0.62 | 0.00 | 72 | 1018.0 |
| 20260510191543 | 71 | 214 | 0.0 | 1.0 | 0.00 | 0.62 | 0.00 | 71 | 1018.0 |
| 20260510190048 | 71 | 213 | 0.0 | 1.0 | 0.00 | 0.71 | 0.00 | 72 | 1018.1 |
| 20260510184556 | 72 | 212 | 0.0 | 1.0 | 0.00 | 0.71 | 0.00 | 69 | 1018.2 |
| 20260510183037 | 72 | 198 | 0.0 | 1.0 | 0.00 | 0.71 | 0.00 | 70 | 1018.2 |
| 20260510181552 | 72 | 203 | 0.0 | 3.0 | 0.00 | 0.71 | 0.00 | 68 | 1018.5 |
| 20260510180045 | 73 | 151 | 0.0 | 1.0 | 0.00 | 0.71 | 0.00 | 70 | 1018.5 |
| 20260510174530 | 72 | 155 | 0.0 | 1.0 | 0.00 | 0.71 | 0.00 | 70 | 1018.3 |
| 20260510173028 | 71 | 229 | 0.0 | 1.0 | 0.00 | 0.71 | 0.00 | 74 | 1018.4 |
| 20260510171525 | 69 | 226 | 0.0 | 1.0 | 0.00 | 0.71 | 0.00 | 80 | 1018.5 |
| 20260510170020 | 67 | 221 | 0.0 | 1.0 | 0.00 | 0.71 | 0.00 | 94 | 1018.5 |
| 20260510164519 | 66 | 221 | 0.0 | 3.0 | 0.00 | 0.71 | 0.00 | 93 | 1018.7 |
| 20260510163018 | 66 | 199 | 0.0 | 1.0 | 0.00 | 0.71 | 0.00 | 93 | 1018.8 |
| 20260510161518 | 66 | 178 | 0.0 | 2.0 | 0.00 | 0.71 | 0.00 | 95 | 1018.9 |
| 20260510160015 | 65 | 219 | 0.0 | 1.0 | 0.00 | 0.71 | 0.00 | 96 | 1019.0 |
| 20260510154514 | 65 | 217 | 0.0 | 2.0 | 0.00 | 0.71 | 0.00 | 96 | 1019.1 |
| 20260510153023 | 63 | 213 | 0.0 | 1.0 | 0.00 | 0.71 | 0.00 | 97 | 1019.3 |
| 20260510151505 | 62 | 212 | 0.0 | 1.0 | 0.00 | 0.71 | 0.00 | 98 | 1019.4 |
| 20260510150002 | 60 | 212 | 0.0 | 1.0 | 0.00 | 0.71 | 0.00 | 98 | 1019.4 |
| 20260510144615 | 59 | 212 | 0.0 | 1.0 | 0.00 | 0.71 | 0.00 | 98 | 1019.2 |
| 20260510144503 | 59 | 212 | 0.0 | 1.0 | 0.00 | 0.71 | 0.00 | 98 | 1019.2 |
| 20260510143101 | 58 | 212 | 0.0 | 1.0 | 0.00 | 0.71 | 0.00 | 98 | 1019.2 |
| 20260510141555 | 57 | 212 | 0.0 | 0.0 | 0.00 | 0.71 | 0.00 | 99 | 1019.3 |
| 20260510140053 | 56 | 212 | 0.0 | 1.0 | 0.00 | 0.71 | 0.00 | 98 | 1019.1 |
| 20260510134553 | 56 | 212 | 0.0 | 0.0 | 0.00 | 0.71 | 0.00 | 98 | 1019.0 |
| 20260510133052 | 56 | 212 | 0.0 | 0.0 | 0.00 | 0.71 | 0.00 | 98 | 1019.3 |
| 20260510131550 | 56 | 212 | 0.0 | 0.0 | 0.00 | 0.71 | 0.00 | 99 | 1019.2 |
| 20260510130049 | 55 | 214 | 0.0 | 0.0 | 0.00 | 0.71 | 0.00 | 99 | 1019.3 |
| 20260510124548 | 55 | 214 | 0.0 | 0.0 | 0.00 | 0.71 | 0.00 | 99 | 1019.3 |
| 20260510123043 | 54 | 215 | 0.0 | 1.0 | 0.00 | 0.71 | 0.00 | 99 | 1019.1 |
| 20260510121539 | 53 | 216 | 0.0 | 1.0 | 0.00 | 0.71 | 0.00 | 99 | 1018.8 |
| 20260510120039 | 53 | 216 | 0.0 | 0.0 | 0.00 | 0.71 | 0.00 | 99 | 1018.7 |
| 20260510114537 | 52 | 216 | 0.0 | 0.0 | 0.00 | 0.71 | 0.00 | 99 | 1018.5 |
| 20260510113035 | 52 | 216 | 0.0 | 1.0 | 0.00 | 0.71 | 0.00 | 99 | 1018.7 |
| 20260510111535 | 52 | 216 | 0.0 | 0.0 | 0.00 | 0.71 | 0.00 | 99 | 1018.5 |
| 20260510110033 | 52 | 216 | 0.0 | 0.0 | 0.00 | 0.71 | 0.00 | 99 | 1018.4 |
| 20260510104534 | 51 | 216 | 0.0 | 1.0 | 0.00 | 0.71 | 0.00 | 99 | 1018.1 |
| 20260510103029 | 51 | 216 | 0.0 | 1.0 | 0.00 | 0.71 | 0.00 | 99 | 1018.0 |
| 20260510101527 | 51 | 216 | 0.0 | 0.0 | 0.00 | 0.71 | 0.00 | 99 | 1018.0 |
| 20260510100027 | 50 | 216 | 0.0 | 0.0 | 0.00 | 0.71 | 0.00 | 99 | 1018.4 |
| 20260510094531 | 51 | 216 | 0.0 | 0.0 | 0.00 | 0.71 | 0.00 | 99 | 1018.3 |
| 20260510093025 | 51 | 216 | 0.0 | 1.0 | 0.00 | 0.71 | 0.00 | 99 | 1018.3 |
| 20260510091527 | 52 | 216 | 0.0 | 0.0 | 0.00 | 0.71 | 0.00 | 99 | 1018.3 |
| 20260510090023 | 52 | 216 | 0.0 | 0.0 | 0.00 | 0.73 | 0.00 | 99 | 1018.6 |
| 20260510084541 | 52 | 216 | 0.0 | 0.0 | 0.00 | 0.73 | 0.00 | 99 | 1018.3 |
| 20260510083018 | 52 | 216 | 0.0 | 0.0 | 0.00 | 0.73 | 0.00 | 99 | 1018.3 |
| 20260510081529 | 52 | 216 | 0.0 | 0.0 | 0.00 | 0.73 | 0.00 | 99 | 1018.1 |
| 20260510080022 | 52 | 216 | 0.0 | 0.0 | 0.00 | 0.73 | 0.00 | 99 | 1017.9 |
| 20260510074516 | 52 | 216 | 0.0 | 0.0 | 0.00 | 0.73 | 0.00 | 99 | 1017.9 |
| 20260510073016 | 52 | 216 | 0.0 | 0.0 | 0.00 | 0.73 | 0.00 | 99 | 1017.9 |
| 20260510071514 | 52 | 216 | 0.0 | 0.0 | 0.00 | 0.73 | 0.00 | 99 | 1017.9 |
| 20260510070014 | 52 | 216 | 0.0 | 0.0 | 0.00 | 0.73 | 0.00 | 99 | 1018.0 |
| 20260510064513 | 52 | 216 | 0.0 | 0.0 | 0.00 | 0.73 | 0.00 | 99 | 1018.0 |
| 20260510063013 | 52 | 216 | 0.0 | 0.0 | 0.00 | 0.73 | 0.00 | 99 | 1017.8 |
| 20260510061512 | 52 | 216 | 0.0 | 0.0 | 0.00 | 0.73 | 0.00 | 99 | 1017.4 |
| 20260510060009 | 52 | 216 | 0.0 | 0.0 | 0.00 | 0.73 | 0.00 | 99 | 1017.5 |
| 20260510054509 | 52 | 216 | 0.0 | 0.0 | 0.00 | 0.73 | 0.00 | 99 | 1017.8 |
| 20260510053009 | 52 | 216 | 0.0 | 0.0 | 0.00 | 0.73 | 0.00 | 99 | 1017.8 |
| 20260510051508 | 52 | 216 | 0.0 | 0.0 | 0.00 | 0.73 | 0.00 | 99 | 1017.7 |
| 20260510050007 | 52 | 216 | 0.0 | 0.0 | 0.00 | 0.73 | 0.00 | 99 | 1017.8 |
| 20260510044505 | 52 | 216 | 0.0 | 0.0 | 0.00 | 0.73 | 0.00 | 99 | 1017.8 |
| 20260510043005 | 52 | 216 | 0.0 | 0.0 | 0.00 | 0.73 | 0.00 | 99 | 1017.7 |
| 20260510041502 | 52 | 216 | 0.0 | 0.0 | 0.00 | 0.73 | 0.00 | 99 | 1017.6 |
| 20260510040001 | 52 | 216 | 0.0 | 0.0 | 0.00 | 0.73 | 0.73 | 99 | 1017.5 |
| 20260510034602 | 52 | 216 | 0.0 | 0.0 | 0.00 | 0.73 | 0.73 | 99 | 1017.7 |
| 20260510033108 | 52 | 216 | 0.0 | 1.0 | 0.00 | 0.73 | 0.73 | 99 | 1017.7 |
| 20260510031606 | 52 | 216 | 0.0 | 1.0 | 0.00 | 0.73 | 0.73 | 99 | 1017.6 |
| 20260510030103 | 52 | 216 | 0.0 | 0.0 | 0.00 | 0.73 | 0.73 | 99 | 1017.5 |
| 20260510024558 | 52 | 216 | 0.0 | 0.0 | 0.00 | 0.73 | 0.73 | 98 | 1017.5 |
| 20260510023058 | 52 | 216 | 0.0 | 0.0 | 0.00 | 0.73 | 0.73 | 98 | 1017.6 |
| 20260510021557 | 52 | 216 | 0.0 | 0.0 | 0.00 | 0.73 | 0.73 | 98 | 1017.5 |
| 20260510020056 | 52 | 216 | 0.0 | 0.0 | 0.00 | 0.73 | 0.73 | 98 | 1017.7 |
| 20260510014600 | 53 | 216 | 0.0 | 0.0 | 0.00 | 0.73 | 0.73 | 98 | 1017.6 |
| 20260510013110 | 53 | 216 | 0.0 | 0.0 | 0.00 | 0.73 | 0.73 | 98 | 1017.6 |
| 20260510011555 | 53 | 216 | 0.0 | 1.0 | 0.00 | 0.73 | 0.73 | 98 | 1017.4 |
| 20260510010056 | 53 | 216 | 0.0 | 1.0 | 0.00 | 0.73 | 0.73 | 98 | 1017.5 |
| 20260510004555 | 53 | 216 | 0.0 | 1.0 | 0.00 | 0.73 | 0.73 | 98 | 1017.2 |
| 20260510003055 | 53 | 216 | 0.0 | 0.0 | 0.02 | 0.73 | 0.73 | 98 | 1017.2 |
| 20260510001554 | 53 | 216 | 0.0 | 1.0 | 0.05 | 0.73 | 0.73 | 98 | 1017.0 |
| 20260510000052 | 54 | 216 | 0.0 | 1.0 | 0.06 | 0.73 | 0.73 | 98 | 1016.8 |
| 20260509234552 | 54 | 216 | 0.0 | 1.0 | 0.08 | 0.73 | 0.73 | 98 | 1016.7 |
| 20260509233058 | 54 | 216 | 0.0 | 1.0 | 0.10 | 0.71 | 0.71 | 98 | 1017.1 |
| 20260509231557 | 53 | 216 | 0.0 | 0.0 | 0.11 | 0.68 | 0.68 | 98 | 1017.5 |
| 20260509230050 | 53 | 216 | 0.0 | 0.0 | 0.14 | 0.67 | 0.67 | 98 | 1017.6 |
| 20260509224549 | 53 | 218 | 0.0 | 1.0 | 0.21 | 0.64 | 0.64 | 98 | 1017.7 |
| 20260509223050 | 52 | 219 | 0.0 | 0.0 | 0.23 | 0.61 | 0.61 | 98 | 1017.9 |
| 20260509221548 | 52 | 219 | 0.0 | 0.0 | 0.20 | 0.56 | 0.56 | 98 | 1018.1 |
| 20260509220053 | 52 | 220 | 0.0 | 0.0 | 0.16 | 0.53 | 0.53 | 98 | 1017.9 |
| 20260509214546 | 53 | 221 | 0.0 | 0.0 | 0.07 | 0.43 | 0.43 | 97 | 1017.9 |
| 20260509213047 | 53 | 221 | 0.0 | 0.0 | 0.04 | 0.38 | 0.38 | 97 | 1017.9 |
| 20260509211548 | 53 | 221 | 0.0 | 1.0 | 0.05 | 0.37 | 0.37 | 97 | 1017.8 |
| 20260509210052 | 53 | 221 | 0.0 | 1.0 | 0.15 | 0.37 | 0.37 | 97 | 1016.6 |
| 20260509204550 | 53 | 221 | 0.0 | 0.0 | 0.19 | 0.36 | 0.36 | 97 | 1017.8 |
| 20260509203043 | 52 | 221 | 0.0 | 0.0 | 0.19 | 0.34 | 0.34 | 96 | 1017.9 |